Tracking 30995 objects as of 7-Jul-2025
HD Live streaming from Space Station
objects crossing your sky now

SCOUT G-1 DEB

Track SCOUT G-1 DEB now!
10-day predictions


NORAD ID: 19181
Int'l Code: 1988-033G
Perigee: 996.8 km
Apogee: 1,372.1 km
Inclination: 89.8 °
Period: 108.9 minutes
Semi major axis: 7555 km
RCS: 0.0549 m2 (small)
Launch date: April 26, 1988
Source: United States (US)
Launch site: AIR FORCE WESTERN TEST RANGE (AFWTR)

Note: This is SATELLITE DEBRIS
Your satellite tracking list
STARLINK-31313
Track 1 satellite(s)




NASA's NSSDC Master Catalog

Two Line Element Set (TLE):
1 19181U 88033G   25187.80177601  .00000042  00000-0  71087-4 0  9998
2 19181  89.8420 283.1539 0248335 342.1707 146.7636 13.21947837791929
Source of the keplerian elements: AFSPC